Starlink 5897

operational
NORAD ID: 55931 Int'l Des: 2023-037 Owner: SPXS Country: US Constellation: starlink
LEOCIRCULAR

Über Starlink 5897

Beschreibung wird geladen...

Live-Position

3D-Globus wird geladen...

Nächste Überflüge

Höhenverlauf

Altitude vs Time

uPlot chart will show altitude changes over time

Zweizeiliger Elementsatz

1 55931U 23037T 25351.58887091 -.00000375 00000-0 -23647-4 0 9993
2 55931 69.9993 151.2834 0002983 266.6032 93.4786 14.98336503151197
Epoch: 17. Dez. 2025 • Age: 8 hours

Aktueller Status

Höhe 577.0 km
Geschwindigkeit 7.57 km/s
Subsatellitenpunkt -14.16°S, 87.27°E
Startdatum 17. März 2023
Alter 2.7 years
Typ internet

Technische Details

Klassifizierung Payload
Masse 305.00 kg
Trockenmasse 290.00 kg
Gesamtmasse 305.00 kg
Länge 0.20 m
Durchmesser 2.80 m
Spannweite 9.00 m
Form Box + pan
Hersteller SPXS
Bus-Typ Starlink
Phasenstatus In Orbit
Besitzer/Staat SPXS/US

Große Konstellationen

Loading constellations...